Regional Weather Roundup
Issued by NWS

Home | Current Version | Previous Version | Graphics & Text | Print | Product List | Glossary On
Versions: 1 2 3 4 5 6 7 8 9 10 11 12 13 14 15 16 17 18 19 20 21 22 23 24 25 26 27 28 29 30 31 32 33 34 35 36 37 38 39 40 41 42 43 44 45 46 47 48 49 50
655
ASUS43 KBIS 261310
RWRND

NORTH DAKOTA REGIONAL WEATHER ROUNDUP
NATIONAL WEATHER SERVICE BISMARCK ND
800 AM CDT TUE SEP 26 2017

NOTE: "FAIR" INDICATES FEW OR NO CLOUDS BELOW 12,000 FEET WITH NO
SIGNIFICANT WEATHER AND/OR OBSTRUCTIONS TO VISIBILITY.


NDZ001>003-009>011-017-261400-
NORTHWEST NORTH DAKOTA

CITY           SKY/WX    TMP DP  RH WIND       PRES   REMARKS
WILLISTON      CLOUDY    47  45  93 CALM      30.10S
MINOT          CLOUDY    49  45  86 SE3       30.11R
MINOT AFB      CLOUDY    47  45  92 CALM      30.10R
$$

NDZ018>021-031>035-040>046-261400-
SOUTHWEST NORTH DAKOTA

CITY           SKY/WX    TMP DP  RH WIND       PRES   REMARKS
BISMARCK       MOCLDY    45  45 100 CALM      30.12S
DICKINSON      LGT RAIN  45  44  97 E5        30.07R
GARRISON         N/A     46  44  93 CALM      30.10S
HETTINGER ARPT CLOUDY    44  42  93 SE3       30.10R
$$

NDZ004>008-012>016-024-026-027-054-261400-
NORTHEAST NORTH DAKOTA

CITY           SKY/WX    TMP DP  RH WIND       PRES   REMARKS
GRAND FORKS    RAIN      49  49 100 NW9       30.07R
GRND FRKS AFB  LGT RAIN  48  48 100 N8        30.09R
DEVILS LAKE    CLOUDY    45  43  93 NW7       30.11R
$$

NDZ022-023-025-028>030-036>039-047>053-261400-
SOUTHEAST NORTH DAKOTA

CITY           SKY/WX    TMP DP  RH WIND       PRES   REMARKS
FARGO          LGT RAIN  50  50 100 N9        30.03F
JAMESTOWN      LGT RAIN  47  46  97 NW8       30.09R
$$





USA.gov is the U.S. government's official web portal to all federal, state and local government web resources and services.